User: anonymous   Login
Location: Sevilla
(37.3933°N, 5.9839°W)
Time: 13:11:36
(UTC+02:00)
Language:

Courier 1B Rocket - Orbit

View from above orbital plane
View from above orbital plane
View from above satellite
View from above satellite

Ground track
Ground track

The orbit data is extracted from the following two-line orbital elements,

1    59U 60013B   24177.17671457  .00000125  00000-0  53137-4 0  9994
2    59  28.2473 233.3064 0189117  14.2505 346.3285 13.53078524146175
Epoch (UTC): 25 June 2024 04:14:28
Eccentricity: 0.0189117
inclination: 28.2473°
perigee height: 920 km
apogee height: 1201 km
right ascension of ascending node: 233.3064°
argument of perigee: 14.2505°
revolutions per day: 13.53078524
mean anomaly at epoch: 346.3285°
orbit number at epoch: 14617

The dashed part of the orbit path shows where the satellite is in the earth's shadow,  

DLR